Date String (YYYY-MM-DD hh:mm:ss) UTC,Instrument flags,Ambient pressure (hPa),Sample flow (lpm),Bypass flow (lpm),Sample temperature (°C),Ambient temperature (°C),ASC tube jacket temperature (°C),LED temperature (°C),Box temperature (°C),Sample RH (%),Span deviation,Mass concentration (μg/m³),Mass concentration (μg/m³),Mass concentration (μg/m³)
DateTimeUTC,F1_M11,P_M11,Q1_M11,Q2_M11,T1_M11,T2_M11,T3_M11,T4_M11,T5_M11,U1_M11,ZSPAN_M11,X0_M11,X2_M11,X1_M11
2021-09-24 13:00:00,,0831.1,5.01,0.00,30.1,29.1,00.0,39.2,31.8,11.7,0003.1,0016.75,0010.47,0009.71
2021-09-24 13:01:00,,0831.1,5.01,0.00,30.1,29.1,00.0,39.2,31.8,11.7,0003.4,0016.85,0010.46,0009.70
2021-09-24 13:02:00,,0831.1,4.99,0.00,30.1,29.1,00.0,39.2,31.8,11.8,0003.5,0017.01,0010.41,0009.68
2021-09-24 13:03:00,,0831.2,5.00,0.00,30.1,29.1,00.0,39.2,31.8,11.7,0003.5,0016.92,0010.39,0009.65
2021-09-24 13:04:00,,0831.2,5.00,0.00,30.1,29.1,00.0,39.2,31.8,11.8,0003.5,0016.43,0010.38,0009.62
2021-09-24 13:05:00,,0831.2,5.02,0.00,30.1,29.1,00.0,39.2,31.8,11.8,0003.3,0016.34,0010.33,0009.58
2021-09-24 13:06:00,,0831.2,4.99,0.00,30.1,29.1,00.0,39.2,31.8,11.9,0003.2,0016.25,0010.25,0009.51
2021-09-24 13:07:00,,0831.2,5.00,0.00,30.1,29.1,00.0,39.2,31.9,11.8,0003.3,0016.05,0010.19,0009.46
2021-09-24 13:08:00,,0831.2,5.02,0.00,30.1,29.1,00.0,39.3,31.9,11.8,0003.1,0015.64,0010.18,0009.44
2021-09-24 13:09:00,,0831.2,4.99,0.00,30.1,29.1,00.0,39.2,31.8,11.8,0002.9,0015.45,0010.14,0009.38
2021-09-24 13:10:00,,0831.2,5.00,0.00,30.1,29.1,00.0,39.2,31.7,11.8,0002.8,0015.17,0010.13,0009.34
2021-09-24 13:11:00,,0831.2,5.01,0.00,30.1,29.1,00.0,39.2,31.8,11.9,0002.9,0014.94,0010.06,0009.30
2021-09-24 13:12:00,,0831.2,5.00,0.00,30.1,29.1,00.0,39.3,31.8,11.9,0002.6,0014.83,0010.04,0009.28
2021-09-24 13:13:00,,0831.2,4.99,0.00,30.1,29.1,00.0,39.3,31.8,11.8,0002.4,0014.61,0010.05,0009.26
2021-09-24 13:14:00,,0831.2,4.99,0.00,30.1,29.2,00.0,39.3,31.9,11.8,0002.2,0014.30,0010.02,0009.24
2021-09-24 13:15:00,,0831.3,5.00,0.00,30.1,29.2,00.0,39.3,31.8,11.8,0002.3,0014.18,0010.00,0009.23
2021-09-24 13:16:00,,0831.3,5.01,0.00,30.1,29.2,00.0,39.3,31.8,11.8,0002.1,0014.11,0009.98,0009.21
2021-09-24 13:17:00,,0831.4,5.00,0.00,30.1,29.2,00.0,39.3,31.8,11.9,0002.0,0014.11,0009.99,0009.23
2021-09-24 13:18:00,,0831.4,5.00,0.00,30.1,29.2,00.0,39.3,31.9,11.9,0001.9,0014.46,0010.00,0009.24
2021-09-24 13:19:00,,0831.4,4.99,0.00,30.1,29.1,00.0,39.3,31.9,11.8,0002.0,0014.36,0009.95,0009.22
2021-09-24 13:20:00,,0831.4,5.01,0.00,30.1,29.1,00.0,39.3,31.8,11.8,0002.3,0014.23,0009.94,0009.22
2021-09-24 13:21:00,,0831.4,4.99,0.00,30.1,29.1,00.0,39.3,31.8,11.7,0002.4,0014.15,0009.92,0009.21
2021-09-24 13:22:00,,0831.5,5.00,0.00,30.1,29.1,00.0,39.3,31.8,11.7,0002.3,0014.18,0009.91,0009.22
2021-09-24 13:23:00,,0831.5,5.01,0.00,30.1,29.1,00.0,39.3,31.8,11.7,0002.2,0014.25,0009.92,0009.21
2021-09-24 13:24:00,,0831.5,4.99,0.00,30.1,29.2,00.0,39.3,31.8,11.8,0002.2,0014.38,0009.93,0009.19
2021-09-24 13:25:00,,0831.6,4.99,0.00,30.1,29.2,00.0,39.3,31.8,11.8,0002.4,0014.49,0009.94,0009.18
2021-09-24 13:26:00,,0831.7,5.00,0.00,30.1,29.2,00.0,39.3,31.8,11.7,0002.4,0015.43,0009.92,0009.19
2021-09-24 13:27:00,,0831.7,5.00,0.00,30.1,29.2,00.0,39.3,31.8,11.7,0002.4,0015.48,0009.89,0009.18
2021-09-24 13:28:00,,0831.7,5.00,0.00,30.1,29.2,00.0,39.3,31.9,11.8,0002.5,0015.54,0009.86,0009.16
2021-09-24 13:29:00,,0831.7,5.00,0.00,30.1,29.2,00.0,39.3,31.9,11.7,0002.4,0015.25,0009.83,0009.14
2021-09-24 13:30:00,,0831.7,4.98,0.00,30.1,29.2,00.0,39.3,31.9,11.7,0002.3,0015.59,0009.81,0009.14
2021-09-24 13:31:00,,0831.9,5.01,0.00,30.1,29.2,00.0,39.3,31.9,11.7,0002.0,0015.65,0009.81,0009.13
2021-09-24 13:32:00,,0832.0,5.00,0.00,30.1,29.2,00.0,39.3,31.9,11.7,0001.9,0015.75,0009.83,0009.14
2021-09-24 13:33:00,,0832.0,4.99,0.00,30.1,29.2,00.0,39.3,31.9,11.7,0002.1,0016.07,0009.87,0009.12
2021-09-24 13:34:00,,0832.1,5.01,0.00,30.1,29.2,00.0,39.3,31.9,11.7,0002.0,0016.68,0009.90,0009.13
2021-09-24 13:35:00,,0832.1,4.99,0.00,30.1,29.2,00.0,39.3,31.9,11.8,0002.0,0017.49,0009.89,0009.14
2021-09-24 13:36:00,,0832.1,5.01,0.00,30.2,29.2,00.0,39.3,31.9,11.8,0001.9,0017.52,0009.86,0009.13
2021-09-24 13:37:00,,0832.1,5.00,0.00,30.2,29.2,00.0,39.3,31.9,11.9,0001.8,0017.10,0009.88,0009.15
2021-09-24 13:38:00,,0832.2,4.99,0.00,30.2,29.2,00.0,39.3,31.9,12.0,0001.8,0017.75,0009.90,0009.14
2021-09-24 13:39:00,,0832.2,5.00,0.00,30.2,29.3,00.0,39.3,31.9,12.0,0002.1,0018.85,0009.97,0009.15
2021-09-24 13:40:00,,0832.2,5.00,0.00,30.2,29.3,00.0,39.3,31.9,11.9,0002.2,0019.00,0010.01,0009.15
2021-09-24 13:41:00,,0832.2,4.99,0.00,30.2,29.3,00.0,39.3,31.9,11.8,0002.4,0018.85,0010.02,0009.10
2021-09-24 13:42:00,,0832.3,5.00,0.00,30.2,29.3,00.0,39.3,32.0,12.1,0002.7,0018.99,0010.01,0009.08
2021-09-24 13:43:00,,0832.4,5.01,0.00,30.2,29.3,00.0,39.3,31.9,12.1,0002.7,0019.82,0010.01,0009.06
2021-09-24 13:44:00,,0832.4,4.99,0.00,30.2,29.3,00.0,39.3,31.9,12.1,0002.7,0019.94,0009.97,0009.08
2021-09-24 13:45:00,,0832.5,5.00,0.00,30.2,29.3,00.0,39.3,31.9,12.2,0002.7,0019.36,0009.95,0009.09
2021-09-24 13:46:00,,0832.4,5.01,0.00,30.2,29.3,00.0,39.4,32.0,12.5,0002.6,0019.51,0010.01,0009.13
2021-09-24 13:47:00,,0832.5,5.00,0.00,30.2,29.3,00.0,39.4,32.0,12.6,0002.6,0020.89,0010.18,0009.21
2021-09-24 13:48:00,,0832.5,4.99,0.00,30.2,29.3,00.0,39.4,31.9,12.7,0002.4,0020.85,0010.30,0009.25
2021-09-24 13:49:00,,0832.6,5.01,0.00,30.2,29.3,00.0,39.4,31.9,12.8,0002.3,0021.08,0010.41,0009.30
2021-09-24 13:50:00,,0832.6,5.00,0.00,30.2,29.3,00.0,39.4,31.9,12.9,0002.1,0021.35,0010.44,0009.32
2021-09-24 13:51:00,,0832.6,5.00,0.00,30.2,29.3,00.0,39.4,32.0,13.0,0001.8,0022.00,0010.39,0009.32
2021-09-24 13:52:00,,0832.7,5.00,0.00,30.2,29.3,00.0,39.4,31.9,13.1,0001.6,0022.07,0010.37,0009.33
2021-09-24 13:53:00,,0832.7,5.00,0.00,30.2,29.3,00.0,39.4,31.9,13.1,0001.5,0023.08,0010.40,0009.38
2021-09-24 13:54:00,,0832.7,5.00,0.00,30.2,29.3,00.0,39.4,31.9,13.2,0001.4,0023.53,0010.41,0009.38
2021-09-24 13:55:00,,0832.8,5.00,0.00,30.2,29.3,00.0,39.4,32.0,13.3,0001.4,0023.36,0010.47,0009.37
2021-09-24 13:56:00,,0832.8,5.00,0.00,30.2,29.3,00.0,39.4,32.0,13.4,0001.6,0024.34,0010.47,0009.33
2021-09-24 13:57:00,,0832.7,4.99,0.00,30.2,29.3,00.0,39.4,32.0,13.3,0001.7,0024.08,0010.43,0009.24
2021-09-24 13:58:00,,0832.8,5.03,0.00,30.2,29.3,00.0,39.4,32.0,13.4,0001.5,0023.02,0010.25,0009.14
2021-09-24 13:59:00,,0832.8,4.99,0.00,30.2,29.3,00.0,39.4,32.0,13.5,0001.9,0022.68,0010.12,0009.04
